Location: Shenandoah County Park
(38.9356°N, 78.4524°W)
Time: 11:29:11
(UTC-05:00)

Envisat - Pass Details

Date: 09 October 2022
Orbit: 763 x 765 km, 98.2° (Epoch: 29 November)

Event Time Altitude Azimuth Distance (km) Brightness Sun altitude
Rises 06:15:56 0° 3° (N) 3,239 6.3 -12.8°
Reaches altitude 10° 06:18:23 10° 355° (N) 2,309 5.5 -12.3°
Maximum altitude 06:22:59 36° 290° (WNW) 1,206 3.6 -11.4°
Drops below altitude 10° 06:27:34 10° 225° (SW) 2,294 5.1 -10.5°
Sets 06:30:00 0° 217° (SW) 3,216 5.9 -10.0°
